Location: Fort Wayne
(41.1310°N, 85.1290°W)
Time: 06:24:28
(UTC-04:00)

IDEFIX/ARIANE 42P - Visible Passes

Search period start: 27 September 2016 00:00
Search period end: 07 October 2016 00:00
Orbit: 786 x 802 km, 98.2° (Epoch: 26 September)

Date Brightness Start Highest point End Pass type
(mag) Time Alt. Az. Time Alt. Az. Time Alt. Az.
27 Sep 6.2 06:46:55 10° ENE 06:48:48 12° E 06:50:40 10° ESE visible
28 Sep 5.8 20:57:07 10° WSW 20:59:12 12° W 21:01:18 10° WNW visible
29 Sep 5.2 20:26:29 10° SW 20:30:35 23° W 20:34:42 10° NW visible
30 Sep 5.8 07:00:18 10° NE 07:03:39 17° E 07:06:58 10° SE visible
30 Sep 4.1 19:57:08 10° SSW 20:02:03 42° W 20:07:02 10° NNW visible
02 Oct 5.6 20:42:06 10° SW 20:45:23 17° W 20:48:41 10° NW visible
03 Oct 4.7 20:12:15 10° SSW 20:16:48 30° W 20:21:25 10° NW visible
04 Oct 6.2 06:47:41 10° ENE 06:49:50 12° E 06:51:58 10° ESE visible
04 Oct 3.5 19:43:13 10° S 19:48:21 55° W 19:53:31 10° NNW visible
05 Oct 5.9 20:58:25 10° WSW 21:00:14 12° W 21:02:03 10° WNW visible
06 Oct 5.2 20:27:34 10° SW 20:31:35 22° W 20:35:38 10° NW visible
